User: anonymous   Login
Location: Boston
(42.3580°N, 71.0600°W)
Time: 21:54:09
(UTC-04:00)
Language:

LO-87 - Orbit

View from above orbital plane
View from above orbital plane
View from above satellite
View from above satellite

Ground track
Ground track

The orbit data is extracted from the following two-line orbital elements,

1 41557U 16033B   18172.75645855  .00001323  00000-0  51026-4 0  9996
2 41557  97.4377 256.9642 0015571 142.2414 217.9921 15.28017257114850
Epoch (UTC): 21 June 2018 18:09:18
Eccentricity: 0.0015571
inclination: 97.4377°
perigee height: 471 km
apogee height: 492 km
right ascension of ascending node: 256.9642°
argument of perigee: 142.2414°
revolutions per day: 15.28017257
mean anomaly at epoch: 217.9921°
orbit number at epoch: 11485

The dashed part of the orbit path shows where the satellite is in the earth's shadow,  

DLR